User: anonymous   Login
Location: Platte
(43.3870°N, 98.8440°W)
Time: 18:07:27
(UTC-05:00)
Language:

Landsat 7 - Orbit

View from above orbital plane
View from above orbital plane
View from above satellite
View from above satellite

Ground track
Ground track

The orbit data is extracted from the following two-line orbital elements,

1 25682U 99020A   16205.26743544 -.00000105  00000-0 -13223-4 0  9995
2 25682  98.2121 275.1778 0000810  49.4234 310.7035 14.57107773918694
Epoch (UTC): 23 July 2016 06:25:06
Eccentricity: 0.0000810
inclination: 98.2121°
perigee height: 702 km
apogee height: 703 km
right ascension of ascending node: 275.1778°
argument of perigee: 49.4234°
revolutions per day: 14.57107773
mean anomaly at epoch: 310.7035°
orbit number at epoch: 91869

The dashed part of the orbit path shows where the satellite is in the earth's shadow,  

DLR